N9AAA Weather Reports


Display with metric or nautical units.
time (UTC)temp
F
wind
direction
speed
MPH
gust
MPH
rain 1hr
in
rain 24hr
in
rain mn
in
humidity
%
barometer
mb
20260504001040 68 250 4.0 11.0 0.00 0.01 0.01 46 1003.8
20260504000542 68 265 2.0 9.0 0.00 0.01 0.01 46 1003.8
20260504000053 68 233 3.0 9.0 0.00 0.01 0.01 45 1003.7
20260503235540 68 233 3.0 9.0 0.00 0.01 0.01 45 1003.8
20260503235041 68 296 4.0 9.0 0.00 0.01 0.01 45 1003.9
20260503234551 68 249 5.0 10.0 0.00 0.01 0.01 45 1003.9
20260503234044 68 217 3.0 10.0 0.00 0.01 0.01 44 1004.0
20260503233543 68 277 4.0 10.0 0.00 0.01 0.01 44 1004.0
20260503233058 68 254 2.0 13.0 0.00 0.01 0.01 45 1004.1
20260503232538 69 301 4.0 13.0 0.00 0.01 0.01 44 1004.0
20260503232037 69 350 2.0 10.0 0.00 0.01 0.01 44 1004.1
20260503231545 69 273 3.0 8.0 0.00 0.01 0.01 45 1004.2
20260503231039 69 244 2.0 15.0 0.00 0.01 0.01 44 1004.2
20260503230540 69 304 6.0 15.0 0.00 0.01 0.01 44 1004.1
20260503230103 68 250 5.0 14.0 0.00 0.01 0.01 45 1004.3
20260503225539 68 299 4.0 17.0 0.00 0.01 0.01 45 1004.3
20260503225039 68 311 5.0 19.0 0.00 0.01 0.01 44 1004.4
20260503224552 69 271 6.0 19.0 0.00 0.01 0.01 43 1004.5
20260503224039 69 220 4.0 14.0 0.00 0.01 0.01 45 1004.5
20260503223538 69 304 4.0 18.0 0.00 0.01 0.01 45 1004.6
20260503223050 69 227 8.0 18.0 0.00 0.01 0.01 44 1004.5
20260503222539 69 265 6.0 17.0 0.00 0.01 0.01 43 1004.6
20260503222042 69 225 8.0 17.0 0.00 0.01 0.01 44 1004.6
20260503221556 69 279 6.0 17.0 0.00 0.01 0.01 44 1004.5
20260503221039 69 254 10.0 17.0 0.00 0.01 0.01 44 1004.5
20260503220539 69 315 5.0 15.0 0.00 0.01 0.01 44 1004.5
20260503220057 68 259 7.0 20.0 0.00 0.01 0.01 45 1004.5
20260503215538 68 304 11.0 20.0 0.00 0.01 0.01 44 1004.7
20260503215038 69 246 8.0 18.0 0.00 0.01 0.01 44 1004.7
20260503214550 69 275 10.0 18.0 0.00 0.01 0.01 43 1004.6
20260503214039 69 194 7.0 18.0 0.00 0.01 0.01 44 1004.5
20260503213539 69 254 6.0 16.0 0.00 0.01 0.01 46 1004.5
20260503213052 69 252 5.0 19.0 0.00 0.01 0.01 45 1004.6
20260503212539 69 308 9.0 22.0 0.00 0.01 0.01 45 1004.6
20260503212039 68 232 7.0 22.0 0.00 0.01 0.01 46 1004.6
20260503211603 68 277 9.0 17.0 0.00 0.01 0.01 44 1004.7
20260503211039 69 240 5.0 20.0 0.00 0.01 0.01 45 1004.8
20260503210540 68 230 8.0 20.0 0.00 0.01 0.01 45 1004.9
20260503210042 68 223 5.0 17.0 0.00 0.01 0.01 45 1005.1
20260503205540 68 268 4.0 19.0 0.00 0.01 0.01 46 1005.1
20260503205039 68 277 9.0 19.0 0.00 0.01 0.01 46 1005.3
20260503204548 67 242 7.0 17.0 0.00 0.01 0.01 46 1005.1
20260503204039 67 252 6.0 19.0 0.00 0.01 0.01 46 1005.4
20260503203538 67 308 11.0 19.0 0.00 0.01 0.01 47 1005.5
20260503203053 68 236 7.0 18.0 0.00 0.01 0.01 46 1005.6
20260503202539 67 248 9.0 22.0 0.00 0.01 0.01 47 1005.5
20260503202039 67 297 7.0 24.0 0.00 0.01 0.01 48 1005.7
20260503201547 66 204 12.0 24.0 0.00 0.01 0.01 47 1005.7
20260503201041 67 219 7.0 22.0 0.00 0.01 0.01 48 1005.7
20260503200539 66 238 11.0 20.0 0.00 0.01 0.01 46 1005.8
20260503200058 66 194 9.0 21.0 0.00 0.01 0.01 47 1005.7
20260503195539 66 194 11.0 21.0 0.00 0.01 0.01 47 1006.0
20260503195038 66 236 10.0 22.0 0.00 0.01 0.01 47 1006.2
20260503194547 66 228 11.0 22.0 0.00 0.01 0.01 46 1006.2
20260503194039 65 225 11.0 21.0 0.00 0.01 0.01 48 1006.4
20260503193538 65 186 12.0 21.0 0.00 0.01 0.01 47 1006.3
20260503193058 65 270 10.0 21.0 0.00 0.01 0.01 47 1006.2
20260503192541 65 206 9.0 21.0 0.00 0.01 0.01 47 1006.5
20260503192038 65 219 12.0 29.0 0.00 0.01 0.01 47 1006.4
20260503191549 65 240 12.0 29.0 0.00 0.01 0.01 47 1006.6
20260503191039 65 199 12.0 36.0 0.00 0.01 0.01 47 1006.6
20260503190538 65 267 10.0 36.0 0.00 0.01 0.01 48 1006.7
20260503190050 65 198 14.0 36.0 0.00 0.01 0.01 47 1006.7
20260503185538 64 208 11.0 30.0 0.00 0.01 0.01 50 1006.7
20260503185038 64 215 8.0 24.0 0.00 0.01 0.01 50 1006.7
20260503184558 63 237 12.0 24.0 0.00 0.01 0.01 52 1006.8
20260503184039 63 225 10.0 23.0 0.00 0.01 0.01 53 1006.8
20260503183539 63 222 8.0 23.0 0.00 0.01 0.01 54 1006.9
20260503183045 63 217 13.0 20.0 0.00 0.01 0.01 52 1006.9
20260503182540 63 229 10.0 25.0 0.00 0.01 0.01 52 1007.1
20260503182038 63 228 11.0 25.0 0.00 0.01 0.01 52 1007.1
20260503181608 63 223 11.0 25.0 0.00 0.01 0.01 50 1007.2
20260503181039 63 212 9.0 26.0 0.00 0.01 0.01 51 1007.2
20260503180539 62 257 13.0 26.0 0.00 0.01 0.01 50 1007.3
20260503180110 62 221 13.0 26.0 0.00 0.01 0.01 51 1007.3
20260503175538 62 201 15.0 26.0 0.00 0.01 0.01 51 1007.3
20260503175038 62 234 12.0 24.0 0.00 0.01 0.01 52 1007.4
20260503174555 62 234 12.0 24.0 0.00 0.01 0.01 54 1007.5
20260503174039 61 270 12.0 26.0 0.00 0.01 0.01 53 1007.5
20260503173539 62 194 13.0 26.0 0.00 0.01 0.01 53 1007.5
20260503173058 62 242 10.0 21.0 0.00 0.01 0.01 53 1007.4
20260503172542 61 259 9.0 26.0 0.00 0.01 0.01 55 1007.5
20260503172038 60 225 11.0 26.0 0.00 0.01 0.01 55 1007.5
20260503171545 60 225 12.0 25.0 0.00 0.01 0.01 55 1007.5
20260503171039 60 195 13.0 25.0 0.00 0.01 0.01 55 1007.5
20260503170539 59 231 12.0 26.0 0.00 0.01 0.01 58 1007.7
20260503150539 49 213 5.0 20.0 0.01 0.01 0.01 85 1010.4
20260503131038 52 250 6.0 14.0 0.00 0.00 0.00 63 1011.2
20260503130538 51 252 8.0 14.0 0.00 0.00 0.00 63 1011.4
20260503110541 48 248 6.0 15.0 0.00 0.00 0.00 60 1011.3
20260503081549 47 217 4.0 8.0 0.00 0.00 0.00 57 1012.4
20260503081036 47 234 4.0 9.0 0.00 0.00 0.00 57 1012.4
20260503080537 46 238 4.0 9.0 0.00 0.00 0.00 58 1012.4
20260503080105 46 242 3.0 9.0 0.00 0.00 0.00 58 1012.5
20260503072541 46 215 3.0 9.0 0.00 0.00 0.00 58 1012.8
20260503072039 46 188 4.0 9.0 0.00 0.00 0.00 58 1012.7
20260503071552 46 229 3.0 9.0 0.00 0.00 0.00 58 1012.7
20260503071043 46 209 4.0 9.0 0.00 0.00 0.00 58 1012.8
20260503070539 46 223 3.0 7.0 0.00 0.00 0.00 57 1012.8
20260503055038 47 227 5.0 10.0 0.00 0.00 0.00 55 1013.4
20260503054546 47 219 3.0 8.0 0.00 0.00 0.00 55 1013.4
20260503054039 47 234 3.0 10.0 0.00 0.00 0.00 55 1013.4
20260503053539 47 259 3.0 10.0 0.00 0.00 0.00 55 1013.4
20260503053045 47 270 3.0 11.0 0.00 0.00 0.00 55 1013.4
20260503052537 47 242 4.0 11.0 0.00 0.00 0.00 55 1013.5
20260503052038 47 236 3.0 11.0 0.00 0.00 0.00 55 1013.6
20260503051550 47 244 4.0 11.0 0.00 0.00 0.00 55 1013.6
20260503051042 47 227 3.0 8.0 0.00 0.00 0.00 55 1013.7
20260503050542 47 243 4.0 9.0 0.00 0.00 0.00 55 1013.7
20260503050040 47 245 3.0 9.0 0.00 0.00 0.00 55 1013.7
20260503045539 47 257 5.0 9.0 0.00 0.00 0.00 55 1013.6
20260503045036 47 213 2.0 7.0 0.00 0.00 0.00 56 1013.7
20260503044547 47 244 3.0 9.0 0.00 0.00 0.00 56 1013.8
20260503044038 47 210 3.0 9.0 0.00 0.00 0.00 56 1013.7
20260503043538 47 209 3.0 8.0 0.00 0.00 0.00 56 1013.8
20260503043043 47 255 2.0 9.0 0.00 0.00 0.00 56 1013.9
20260503042539 47 215 3.0 9.0 0.00 0.00 0.00 55 1014.0
20260503042039 47 205 3.0 8.0 0.00 0.00 0.00 55 1014.1
20260503041545 47 221 2.0 8.0 0.00 0.00 0.00 55 1014.1
20260503041039 47 209 2.0 7.0 0.00 0.00 0.00 55 1014.1
20260503040537 47 266 3.0 7.0 0.00 0.00 0.00 55 1014.1
20260503040048 48 232 2.0 5.0 0.00 0.00 0.00 55 1014.2
20260503035537 48 267 2.0 8.0 0.00 0.00 0.00 54 1014.2
20260503035037 48 240 2.0 8.0 0.00 0.00 0.00 54 1014.2
20260503034557 48 261 3.0 6.0 0.00 0.00 0.00 54 1014.2
20260503034039 48 261 2.0 6.0 0.00 0.00 0.00 54 1014.3
20260503033536 48 238 2.0 6.0 0.00 0.00 0.00 54 1014.3
20260503033046 48 225 2.0 6.0 0.00 0.00 0.00 54 1014.3
20260503032539 48 226 1.0 5.0 0.00 0.00 0.00 54 1014.4
20260503032039 48 197 2.0 7.0 0.00 0.00 0.00 54 1014.5
20260503031544 48 238 2.0 7.0 0.00 0.00 0.00 53 1014.4
20260503031039 49 235 2.0 7.0 0.00 0.00 0.00 53 1014.5
20260503030539 49 223 2.0 7.0 0.00 0.00 0.00 53 1014.6
20260503030113 49 237 2.0 7.0 0.00 0.00 0.00 52 1014.7
20260503025541 49 239 2.0 5.0 0.00 0.00 0.00 52 1014.7
20260503025038 49 239 2.0 6.0 0.00 0.00 0.00 51 1014.7
20260503024545 49 218 2.0 6.0 0.00 0.00 0.00 51 1014.7
20260503024039 49 230 2.0 5.0 0.00 0.00 0.00 51 1014.7
20260503023540 49 219 2.0 5.0 0.00 0.00 0.00 50 1014.6
20260503023051 50 217 2.0 4.0 0.00 0.00 0.00 50 1014.6
20260503022539 50 247 2.0 5.0 0.00 0.00 0.00 49 1014.6
20260503022039 50 234 2.0 5.0 0.00 0.00 0.00 49 1014.6
20260503021547 50 234 2.0 5.0 0.00 0.00 0.00 49 1014.6
20260503021037 51 220 2.0 5.0 0.00 0.00 0.00 48 1014.6
20260503020537 51 217 2.0 5.0 0.00 0.00 0.00 48 1014.6
20260503020045 51 226 2.0 4.0 0.00 0.00 0.00 47 1014.5
20260503015539 51 239 2.0 4.0 0.00 0.00 0.00 47 1014.5
20260503015039 51 213 1.0 6.0 0.00 0.00 0.00 47 1014.4
20260503014601 51 243 2.0 6.0 0.00 0.00 0.00 47 1014.2
20260503014038 52 236 1.0 5.0 0.00 0.00 0.00 46 1014.2
20260503013539 52 234 1.0 4.0 0.00 0.00 0.00 46 1014.2
20260503013051 52 244 1.0 4.0 0.00 0.00 0.00 45 1014.2
20260503012539 53 234 2.0 7.0 0.00 0.00 0.00 44 1014.1
20260503012041 53 234 2.0 7.0 0.00 0.00 0.00 44 1014.1
20260503011553 53 211 2.0 5.0 0.00 0.00 0.00 44 1014.1
20260503011039 53 240 2.0 9.0 0.00 0.00 0.00 43 1014.1
20260503010537 54 282 3.0 9.0 0.00 0.00 0.00 43 1014.1
20260503010053 54 242 2.0 7.0 0.00 0.00 0.00 43 1014.1
20260503005543 54 259 3.0 7.0 0.00 0.00 0.00 42 1014.1
20260503005037 54 227 2.0 7.0 0.00 0.00 0.00 42 1014.1
20260503004604 55 234 2.0 9.0 0.00 0.00 0.00 41 1014.1
20260503004037 55 217 3.0 10.0 0.00 0.00 0.00 41 1014.1
20260503003536 55 248 3.0 10.0 0.00 0.00 0.00 41 1014.1
20260503003056 55 234 2.0 8.0 0.00 0.00 0.00 40 1014.2
20260503002539 55 225 2.0 12.0 0.00 0.00 0.00 41 1014.3
20260503002041 55 251 4.0 12.0 0.00 0.00 0.00 39 1014.4
20260503001552 55 281 2.0 7.0 0.00 0.00 0.00 40 1014.4